sat.trackr.live / text

‹ back to catalog

STARLINK-3679

NORAD 51973 · 2022-025T

PAYLOAD ACTIVE UNKNOWN

§ Identity

Operator
Country
US
Launch date
2022-03-09
Launch site
AFETR
Launch vehicle
Mass (kg)
RCS (m²)

Purposes: comms

External: N2YO · Heavens-Above · Gunter

§ Orbital elements

Epoch: 2026-05-25T02:12:20.179008Z

Period
94.01 min
Inclination
53.1610°
Eccentricity
0.0001377
Mean motion
15.31702139 rev/d
Perigee alt
469.8 km
Apogee alt
471.7 km
Semi-major
6,848.9 km
B*
2.4154e-5
RAAN
41.6122°
Arg perigee
94.3966°
Mean anomaly
265.7193°
Rev number
23,253

§ Raw data

STARLINK-36791 51973U 22025T   26145.09190022  .00000384  00000+0  24154-4 0  99912 51973  53.1610  41.6122 0001377  94.3966 265.7193 15.31702139232534

JSON: /api/v1/satellites/51973 · /tle

For live sub-satellite position, see the globe view (requires WebGL).

§ Visibility from observer

Set your observer location to see the next 7 days of passes ≥ 10°. The values pass through the URL so the page stays shareable.

No JS? Fill the form by hand. The geolocation button needs JavaScript.